Torna al catalogo

STARLINK-30384

AttivoComunicazioniVLEO
NORAD 57774·PAYLOAD·🇺🇸 United States

Lanciato Sep 4, 2023 da Cape Canaveral Space Force Station

Loading…

Prossimi Passaggi (prossime 24 ore)

TLE

AggiornatoSource: CelesTrak SupGP

Epoca: Sep 15, 2026, 02:31 UTC

1 57774C 23134D   26258.10534722 -.00002214  00000+0 -80201-4 0  2583
2 57774  43.0003 207.9096 0001309 270.8217 271.8003 15.27573313    14

Traccia STARLINK-30384 in tempo reale con AllMySat

Download on the App Store